北斗 4 (BEIDOU 4)

基本信息
目录编号:
36590
目录名称:
BEIDOU 4
国际标识:
2010-024A
轨道中心:
EARTH
卫星名称:
北斗 4
卫星全名:
北斗 4 (BEIDOU 4)
卫星状态:
在轨 (已飞行5764 天)
发射日期:
2010-06-02 UTC
国别 :
中国 (CN)
星等 :
--
轨道信息
数据来源 国际轨道数据 AOE轨道数据
星历时间 2026-03-13T22:03:45+0800
11小时前
查看轨道信息
2026-03-13T06:00:00+0800
1天前
查看轨道信息
半长轴 42163.803km 42163.803km
偏心率 0.0008055 0.0008083
轨道倾角 4.288° 4.286°
近地点辐角 325.163° 325.483°
升交点赤经 61.886° 61.889°
平近点角 74.657° 192.732°
近地点 35751.703km 35751.584km
远地点 35819.629km 35819.748km
周期 1436.049分钟 1436.049分钟
每日圈数 1.002751 1.002751
详细信息
卫星平台:
东方红三号B
平衡模式:
三轴稳定
制造商(研发单位):
中国空间技术研究院
制造商所在国:
中国
使用方式:
暂无
卫星简介
北斗卫星导航系统是中国着眼于国家安全和经济社会发展需要,自主建设运行的全球卫星导航系统,是为全球用户提供全天候、全天时、高精度的定位、导航和授时服务的国家重要时空基础设施。该卫星仍在工作。
2D轨道图
3D轨道图
轨道高度分析图
轨道倾角分析图
轨道综合分析图
查看轨道综合分析图